WESTFORD NEEDLES, 18688

Orbit data source: Space-Track

WESTFORD NEEDLES, 18688 is space debris in LEO originally from a launch on Thu, 09 May 1963 UTC launched from the Air Force Western Test Range (AFWTR). Debris objects in space refer to the collection of defunct objects orbiting the Earth. Examples of debris include non-operational satellites, rocket bodies, and fragments generated from explosions, collisions, or faulty payload assembly.

Loading next visibility...
Identifier
18688, 1963-014DM
Orbit
LEO
Country
Flag of USUS
Related business
Manufacturer
Unknown
Mission
Spacecraft
Bus & Motor
Unknown
Mass
Unknown
Launch date (UTC)
1963-05-09 (62 years ago)
Launch vehicle
Unknown
Launch site
Air Force Western Test Range (AFWTR)
Object type
Payload
Rocket body
Debris
Shape & HBR
Unknown shape, 1.1 m
Radar Cross Section
Medium (>0.1 m² and <1 m²)

Expand to show TLE details & history
Last TLE update: 6 days ago

TLE from 6 days ago
0 WESTFORD NEEDLES
1 18688U 63014DM  25281.77688252  .00000004  00000-0  30998-3 0  9994
2 18688  87.3417 226.3161 0028349   2.7619 357.3388  8.65105041 97592
Epoch: 2025-10-08T18:38Z
TLE epoch observation values (Epoch: 2025-10-08T18:38:42.649Z)
Latitude
-0°
Longitude
-71.00817°
Altitude
3,619.235 km
Speed
6.324 km/s
True Right ascension
15h 05m 15s
True Declination
0° 00' 00"
Sunlit
Object was in daylight at epoch
Visualization orbit readout
Latitude
Unknown
Longitude
Unknown
Altitude
Unknown
Speed
Unknown
Apparent Right ascension
Unknown
Apparent Declination
Unknown
Sunlit
N/A
Visualization observer readout
Local Sidereal Time
02:35:18
Azimuth
Unknown
Elevation
Unknown
Doppler factor
Unknown
Orbital elements
Apogee altitude
3,671.671 km
Perigee altitude
3,614.851 km
Semi-major axis
10,021.398 km
Eccentricity
0.00283
Inclination
87.3417°
RAAN
226.3161°
Arg. of periapsis
2.7619°
True anomaly
357.32366°
Mean anomaly
357.3388°
Eccentric anomaly
357.33124°
Mean motion
2.16347 °/min
Orbital period
166.4 mins
BSTAR
0.00030998

Documentation

Showing up to 5 results
|